Location: Unspecified
(42.3650°N, 71.1030°W)
Time: 07:24:01
(UTC+00:00)

Vanguard 2 - Pass Details

Date: 03 July 2024
Orbit: 552 x 2913 km, 32.9° (Epoch: 13 July)

Event Time Altitude Azimuth Distance (km) Brightness Sun altitude
Exits shadow 08:09:07 11° 237° (WSW) 3,668 10.3 -10.0°
Maximum altitude 08:18:47 52° 165° (SSE) 2,529 10.0 -8.7°
Drops below altitude 10° 08:33:53 10° 96° (E) 5,536 12.6 -6.6°
Sets 08:38:44 0° 93° (E) 6,695 13.2 -5.9°
